Total_Precipitation_Accumulation
0.04 0.03 0.01 0.00 0.00 0.00 0.00 0.00 0.00 0.00 0.00 0.00 0.00 0.01 0.03 0.06 0.15 0.14 0.17 0.21 0.24 0.27 0.25 0.21 0.14 0.07 0.05 0.06 0.09 0.14 0.18 0.26 0.33 0.35 0.29 0.23 0.16 0.11 0.06 0.05 0.05 0.06 0.05
0.05 0.04 0.02 0.01 0.01 0.00 0.00 0.00 0.00 0.00 0.00 0.00 0.00 0.00 0.00 0.03 0.09 0.11 0.15 0.25 0.35 0.31 0.35 0.37 0.29 0.19 0.15 0.13 0.13 0.16 0.18 0.20 0.24 0.28 0.28 0.28 0.24 0.20 0.16 0.14 0.14 0.11 0.08
0.08 0.07 0.06 0.04 0.02 0.01 0.00 0.00 0.00 0.00 0.00 0.00 0.00 0.00 0.00 0.00 0.01 0.02 0.03 0.08 0.20 0.32 0.40 0.41 0.36 0.30 0.24 0.18 0.12 0.11 0.13 0.14 0.16 0.20 0.22 0.23 0.22 0.22 0.20 0.20 0.22 0.20 0.19
0.17 0.16 0.14 0.11 0.07 0.04 0.02 0.02 0.01 0.00 0.00 0.00 0.00 0.00 0.00 0.00 0.00 0.00 0.01 0.02 0.07 0.15 0.28 0.29 0.28 0.30 0.26 0.21 0.14 0.07 0.07 0.08 0.08 0.10 0.14 0.15 0.14 0.15 0.15 0.19 0.23 0.24 0.24
0.37 0.36 0.34 0.30 0.21 0.11 0.07 0.04 0.02 0.01 0.00 0.01 0.00 0.00 0.00 0.00 0.00 0.00 0.01 0.01 0.02 0.05 0.10 0.09 0.09 0.11 0.15 0.17 0.16 0.10 0.06 0.05 0.06 0.07 0.09 0.09 0.07 0.07 0.09 0.13 0.15 0.18 0.20
0.74 0.76 0.69 0.65 0.51 0.32 0.22 0.13 0.11 0.08 0.05 0.03 0.01 0.01 0.00 0.00 0.00 0.00 0.01 0.01 0.01 0.01 0.02 0.02 0.05 0.04 0.04 0.07 0.08 0.08 0.10 0.08 0.06 0.05 0.05 0.05 0.05 0.04 0.05 0.08 0.10 0.12 0.16
1.14 1.22 1.13 1.04 0.85 0.67 0.55 0.46 0.49 0.46 0.29 0.10 0.09 0.08 0.03 0.01 0.01 0.01 0.01 0.01 0.02 0.02 0.01 0.01 0.02 0.04 0.03 0.01 0.02 0.05 0.10 0.13 0.12 0.08 0.05 0.04 0.03 0.03 0.03 0.04 0.07 0.10 0.12
1.16 1.23 1.33 1.24 1.04 0.95 0.97 0.93 1.02 1.03 0.68 0.32 0.29 0.32 0.20 0.12 0.04 0.02 0.01 0.01 0.02 0.04 0.03 0.01 0.00 0.01 0.02 0.02 0.01 0.02 0.04 0.08 0.11 0.08 0.05 0.04 0.03 0.02 0.02 0.02 0.03 0.06 0.09
1.16 1.20 1.30 1.32 1.18 1.11 1.14 1.18 1.33 1.52 1.23 0.81 0.56 0.59 0.49 0.44 0.26 0.07 0.02 0.03 0.03 0.03 0.04 0.03 0.02 0.01 0.01 0.01 0.01 0.00 0.00 0.02 0.05 0.04 0.04 0.04 0.05 0.04 0.03 0.04 0.05 0.07 0.09
1.08 1.10 1.18 1.25 1.27 1.19 1.24 1.23 1.20 1.48 1.59 1.28 1.02 0.75 0.57 0.48 0.41 0.28 0.10 0.04 0.05 0.04 0.04 0.04 0.03 0.02 0.01 0.01 0.01 0.00 0.00 0.01 0.02 0.03 0.03 0.05 0.06 0.08 0.07 0.09 0.10 0.10 0.09
1.18 1.16 1.24 1.25 1.19 1.18 1.22 1.39 1.44 1.57 1.65 1.52 1.34 1.16 0.99 0.78 0.50 0.46 0.40 0.18 0.07 0.04 0.03 0.02 0.04 0.03 0.02 0.02 0.03 0.01 0.01 0.01 0.01 0.03 0.04 0.03 0.05 0.06 0.08 0.10 0.10 0.10 0.09
1.26 1.30 1.32 1.24 1.13 1.11 1.17 1.31 1.46 1.56 1.70 1.69 1.44 1.22 1.13 1.01 0.90 0.75 0.56 0.42 0.24 0.08 0.04 0.03 0.02 0.02 0.03 0.03 0.03 0.04 0.01 0.00 0.01 0.02 0.03 0.04 0.03 0.03 0.04 0.07 0.08 0.08 0.08
1.13 1.16 1.24 1.32 1.30 1.24 1.27 1.31 1.40 1.36 1.46 1.63 1.47 1.26 1.13 0.96 0.91 0.90 0.75 0.56 0.42 0.18 0.07 0.03 0.02 0.02 0.02 0.02 0.03 0.06 0.01 0.01 0.01 0.02 0.03 0.03 0.03 0.02 0.02 0.03 0.04 0.04 0.04
1.02 0.99 0.99 1.07 1.20 1.24 1.15 1.10 1.03 1.01 1.10 1.25 1.26 1.30 1.29 1.09 0.91 0.80 0.74 0.66 0.52 0.41 0.25 0.13 0.05 0.03 0.02 0.02 0.03 0.04 0.01 0.02 0.02 0.02 0.02 0.02 0.02 0.02 0.02 0.02 0.02 0.02 0.02
0.72 0.70 0.71 0.72 0.77 0.80 0.75 0.75 0.78 0.80 0.81 0.94 1.06 1.13 1.22 1.26 1.13 0.92 0.81 0.72 0.64 0.57 0.51 0.41 0.20 0.07 0.06 0.04 0.03 0.02 0.01 0.02 0.03 0.03 0.02 0.02 0.02 0.02 0.02 0.02 0.01 0.01 0.01
0.54 0.52 0.50 0.46 0.44 0.42 0.43 0.49 0.55 0.61 0.62 0.70 0.84 0.91 0.95 1.01 1.14 1.09 0.93 0.85 0.74 0.62 0.53 0.43 0.36 0.18 0.15 0.10 0.07 0.04 0.03 0.03 0.03 0.02 0.02 0.02 0.02 0.01 0.01 0.01 0.01 0.01 0.01
0.52 0.47 0.43 0.42 0.46 0.44 0.40 0.42 0.41 0.40 0.41 0.45 0.52 0.60 0.71 0.90 1.13 1.16 1.09 0.96 0.86 0.75 0.61 0.50 0.37 0.22 0.22 0.20 0.16 0.09 0.04 0.03 0.03 0.02 0.02 0.02 0.01 0.01 0.01 0.01 0.01 0.01 0.01
0.36 0.36 0.38 0.36 0.36 0.39 0.39 0.42 0.43 0.41 0.39 0.38 0.38 0.42 0.54 0.78 1.04 1.18 1.24 1.17 1.03 0.90 0.85 0.75 0.52 0.30 0.26 0.30 0.33 0.26 0.15 0.09 0.07 0.07 0.07 0.05 0.03 0.02 0.02 0.02 0.01 0.02 0.02
0.31 0.30 0.37 0.37 0.37 0.39 0.39 0.41 0.42 0.42 0.42 0.43 0.45 0.45 0.45 0.57 0.78 0.97 1.09 1.14 1.09 1.03 1.03 0.89 0.67 0.50 0.41 0.32 0.29 0.26 0.22 0.21 0.17 0.17 0.22 0.22 0.17 0.12 0.09 0.06 0.05 0.04 0.03
0.40 0.44 0.50 0.52 0.46 0.41 0.41 0.46 0.44 0.41 0.40 0.40 0.41 0.41 0.40 0.40 0.50 0.64 0.79 0.91 1.03 1.14 1.17 1.08 0.88 0.64 0.58 0.42 0.30 0.28 0.28 0.28 0.27 0.24 0.24 0.29 0.30 0.25 0.19 0.17 0.14 0.12 0.11
0.53 0.51 0.56 0.64 0.71 0.66 0.62 0.65 0.55 0.47 0.43 0.39 0.36 0.31 0.30 0.30 0.31 0.38 0.46 0.65 0.92 1.12 1.19 1.19 1.10 0.83 0.62 0.46 0.30 0.29 0.31 0.36 0.36 0.36 0.39 0.36 0.36 0.35 0.35 0.33 0.31 0.27 0.24
0.44 0.44 0.46 0.52 0.61 0.64 0.81 0.72 0.50 0.39 0.38 0.39 0.40 0.34 0.29 0.23 0.21 0.24 0.28 0.34 0.54 0.71 0.87 0.93 0.94 0.82 0.68 0.56 0.46 0.36 0.28 0.26 0.28 0.33 0.38 0.45 0.47 0.46 0.52 0.51 0.53 0.57 0.52
0.38 0.36 0.34 0.35 0.40 0.54 0.58 0.40 0.35 0.31 0.33 0.37 0.40 0.40 0.35 0.27 0.24 0.25 0.24 0.24 0.27 0.33 0.43 0.59 0.69 0.73 0.79 0.66 0.52 0.39 0.31 0.28 0.29 0.31 0.30 0.37 0.44 0.49 0.56 0.58 0.58 0.59 0.56
0.28 0.28 0.34 0.40 0.42 0.42 0.42 0.32 0.28 0.28 0.38 0.40 0.37 0.33 0.35 0.33 0.31 0.32 0.24 0.25 0.27 0.29 0.32 0.30 0.41 0.62 0.74 0.84 0.71 0.54 0.47 0.38 0.32 0.28 0.25 0.26 0.29 0.35 0.38 0.41 0.42 0.39 0.36
0.32 0.35 0.46 0.52 0.45 0.35 0.34 0.32 0.31 0.32 0.40 0.44 0.40 0.34 0.34 0.35 0.48 0.43 0.29 0.31 0.33 0.36 0.35 0.40 0.44 0.48 0.51 0.59 0.63 0.57 0.50 0.42 0.36 0.32 0.31 0.29 0.25 0.22 0.20 0.19 0.20 0.19 0.17
0.29 0.35 0.36 0.33 0.32 0.37 0.40 0.33 0.36 0.39 0.44 0.50 0.47 0.41 0.51 0.46 0.49 0.40 0.28 0.39 0.44 0.38 0.35 0.38 0.37 0.34 0.32 0.35 0.39 0.42 0.49 0.51 0.45 0.39 0.32 0.27 0.27 0.24 0.21 0.16 0.12 0.11 0.08